Flag for U.S.A. Weather past 2 weeks in Sarasota, Florida, U.S.A.

Now
81 °F

Partly cloudy.


Feels Like: 86 °F
Forecast: 76 / 85 °F
Wind: 8 mph from West

Location: Sarasota-Bradenton International Airport

Current Time: Sep 30, 2014 at 8:36:52 AM

Latest Report: Sep 30, 2014 at 7:53 AM


Visibility: 10 mi

Pressure: 29.83 "Hg

Humidity: 79%

Dew point: 74 °F

Location of SarasotaLocation

Historic Weather in Sarasota — Graph

°F

Sarasota temperature yesterday

Maximum temperature yesterday: 86 °F (at 12:53 PM)
Minimum temperature yesterday: 74 °F (at 1:53 AM)
Average temperature yesterday: 77 °F

Past Weeks' High & Low Weather Summary

 TemperatureHumidityPressure
High89 °F (Sep 16, 10:53 AM)100% (Sep 18, 3:53 AM)30.15 "Hg (Sep 18, 3:53 AM)
Low70 °F (Sep 19, 7:53 PM)50% (Sep 16, 10:53 AM)29.80 "Hg (Sep 30, 4:53 AM)
Average78 °F86%29.96 "Hg
* Reported Sep 15 6:53 AM — Sep 30 6:53 AM, Sarasota, Weather by CustomWeather, © 2014

Note: Actual official high and low records may vary slightly from our data, if they occured in-between our weather recording intervals... More about our weather records

Advertising

Sarasota weather history for previous 24 hours

 ConditionsComfort  
Time TempWeatherWind HumidityBarometerVisibility
6:53 AM
Sep 30
80 °FClear.7 mph81%29.82 "Hg10 mi
5:53 AM79 °FClear.7 mph84%29.81 "Hg10 mi
4:53 AM74 °FPassing clouds.No wind100%29.80 "Hg10 mi
3:53 AM74 °FClear.5 mph100%29.81 "Hg10 mi
2:53 AM74 °FClear.5 mph100%29.82 "Hg10 mi
1:53 AM75 °FPassing clouds.6 mph96%29.83 "Hg10 mi
12:53 AM75 °FClear.3 mph96%29.83 "Hg10 mi
11:53 PM
Sep 29
75 °FClear.No wind96%29.85 "Hg10 mi
10:53 PM75 °FClear.5 mph96%29.85 "Hg10 mi
9:53 PM75 °FClear.5 mph96%29.85 "Hg10 mi
8:53 PM76 °FClear.No wind97%29.84 "Hg10 mi
7:53 PM76 °FLight rain. Passing clouds.No wind97%29.83 "Hg10 mi
6:53 PM75 °FThunderstorms. Fog.3 mph96%29.85 "Hg5 mi
5:53 PM77 °FMostly cloudy.16 mph90%29.86 "Hg10 mi
4:53 PM79 °FThundershowers. Passing clouds.15 mph84%29.84 "Hg10 mi
3:53 PM82 °FPartly sunny.8 mph85%29.83 "Hg10 mi
3:00 PM80 °FLight rain. Broken clouds.15 mph85%29.84 "Hg5 mi
1:53 PM84 °FPartly sunny.12 mph77%29.86 "Hg10 mi
12:53 PM86 °FScattered clouds.13 mph75%29.88 "Hg10 mi
11:53 AM85 °FScattered clouds.12 mph70%29.89 "Hg10 mi
10:53 AM84 °FSunny.9 mph74%29.89 "Hg10 mi
9:53 AM79 °FSunny.8 mph88%29.90 "Hg10 mi
8:53 AM76 °FSunny.6 mph94%29.90 "Hg10 mi
Weather by CustomWeather, © 2014

See weather overviewHow to use our weather pages